GW7113 Weather Reports


time (UTC)temp
F
wind
direction
speed
knots
gust
knots
rain 1hr
in
rain 24hr
in
rain mn
in
humidity
%
barometer
mb
20260506135653 72 100 5.2 9.6 0.01 0.05 0.05 97 1012.4
20260506135152 72 108 7.0 7.8 0.01 0.05 0.05 97 1012.5
20260506134652 71 92 2.6 7.8 0.01 0.05 0.05 97 1012.4
20260506134153 71 121 6.1 8.7 0.01 0.05 0.05 97 1012.0
20260506133652 71 110 7.0 8.7 0.01 0.05 0.05 97 1011.7
20260506133152 71 80 4.3 7.8 0.02 0.05 0.05 97 1012.0
20260506132653 71 58 3.5 7.0 0.02 0.05 0.05 97 1011.5
20260506132153 71 87 1.7 7.0 0.02 0.05 0.05 97 1011.1
20260506131652 71 66 3.5 6.1 0.02 0.05 0.05 97 1011.4
20260506131419 71 54 3.5 6.1 0.02 0.04 0.04 97 1011.6
20260506130653 71 38 2.6 5.2 0.02 0.04 0.04 97 1011.7
20260506130411 71 81 1.7 3.5 0.02 0.04 0.04 97 1011.7
20260506125652 71 66 1.7 5.2 0.03 0.04 0.04 97 1011.8
20260506125153 71 71 2.6 5.2 0.03 0.04 0.04 97 1011.5
20260506124653 71 77 1.7 5.2 0.02 0.04 0.04 97 1011.4
20260506124153 71 75 1.7 3.5 0.03 0.04 0.04 97 1011.3
20260506123653 71 72 2.6 3.5 0.03 0.04 0.04 97 1011.3
20260506123413 71 107 0.9 1.7 0.03 0.04 0.04 96 1011.2
20260506122653 71 148 0.9 1.7 0.04 0.04 0.04 96 1011.2
20260506122412 71 159 0.0 0.9 0.03 0.03 0.03 96 1011.2
20260506121653 71 159 0.0 0.9 0.03 0.03 0.03 96 1011.2
20260506121153 71 159 0.0 1.7 0.03 0.03 0.03 96 1011.4
20260506120909 71 159 0.0 1.7 0.02 0.02 0.02 96 1011.4
20260506120153 71 157 0.0 1.7 0.02 0.02 0.02 96 1011.3
20260506115653 71 161 0.0 2.6 0.02 0.02 0.02 96 1011.2
20260506115152 71 135 1.7 2.6 0.02 0.02 0.02 96 1011.0
20260506114652 71 142 0.0 2.6 0.02 0.02 0.02 96 1011.2
20260506114419 71 142 0.0 2.6 0.01 0.01 0.01 96 1011.1
20260506113654 71 166 0.9 1.7 0.01 0.01 0.01 96 1011.1
20260506113153 71 173 0.9 0.9 0.00 0.00 0.00 96 1011.1
20260506112653 71 173 0.0 0.9 0.00 0.00 0.00 96 1011.3
20260506112153 71 173 0.0 2.6 0.00 0.00 0.00 96 1011.2
20260506111912 71 174 0.0 5.2 0.00 0.00 0.00 96 1011.1
20260506111152 71 171 1.7 7.0 0.00 0.00 0.00 97 1011.3
20260506110652 71 161 1.7 7.0 0.00 0.00 0.00 97 1011.1
20260506110153 71 167 4.3 7.0 0.00 0.00 0.00 97 1011.1
20260506105653 71 188 5.2 7.0 0.00 0.00 0.00 96 1011.1
20260506105153 71 135 4.3 5.2 0.00 0.00 0.00 96 1011.1
20260506104652 71 113 1.7 6.1 0.00 0.00 0.00 96 1011.0
20260506104153 71 113 1.7 6.1 0.00 0.00 0.00 96 1010.8
20260506103653 71 129 1.7 8.7 0.00 0.00 0.00 96 1010.8
20260506103152 71 146 3.5 8.7 0.00 0.00 0.00 96 1010.7
20260506102652 71 171 5.2 7.8 0.00 0.00 0.00 96 1010.8
20260506102152 71 175 4.3 8.7 0.00 0.00 0.00 96 1011.0
20260506101652 71 158 3.5 9.6 0.00 0.00 0.00 96 1011.0
20260506101417 71 169 5.2 9.6 0.00 0.00 0.00 96 1011.0
20260506100654 71 145 5.2 11.3 0.00 0.00 0.00 96 1011.1
20260506100153 71 155 5.2 11.3 0.00 0.00 0.00 96 1010.8
20260506095653 71 143 7.8 11.3 0.00 0.00 0.00 96 1010.5
20260506095153 71 144 7.8 12.2 0.00 0.00 0.00 96 1010.6
20260506094923 71 168 5.2 12.2 0.00 0.00 0.00 96 1010.5
20260506094152 71 142 7.8 9.6 0.00 0.00 0.00 96 1010.5
20260506093653 71 182 6.1 9.6 0.00 0.00 0.00 95 1010.5
20260506093153 71 167 4.3 15.6 0.00 0.00 0.00 95 1010.5
20260506092653 71 137 6.1 15.6 0.00 0.00 0.00 95 1010.5
20260506092153 71 160 6.1 14.8 0.00 0.00 0.00 95 1010.5
20260506091914 71 163 8.7 16.5 0.00 0.00 0.00 95 1010.4
20260506091152 71 142 8.7 16.5 0.00 0.00 0.00 95 1010.1
20260506090657 71 168 7.0 18.2 0.00 0.00 0.00 95 1010.1
20260506090411 72 188 6.1 18.2 0.00 0.00 0.00 95 1010.0
20260506085653 72 141 12.2 16.5 0.00 0.00 0.00 95 1010.0
20260506085154 72 176 11.3 14.8 0.00 0.00 0.00 95 1010.1
20260506084652 72 163 5.2 14.8 0.00 0.00 0.00 95 1010.2
20260506084152 72 168 11.3 14.8 0.00 0.00 0.00 95 1010.2
20260506083652 72 156 7.8 18.2 0.00 0.00 0.00 94 1010.0
20260506082652 72 173 7.8 15.6 0.00 0.00 0.00 95 1010.0
20260506082152 72 170 5.2 13.0 0.00 0.00 0.00 95 1010.0
20260506081653 72 155 7.8 13.0 0.00 0.00 0.00 94 1009.9
20260506081153 72 134 7.8 14.8 0.00 0.00 0.00 94 1010.0
20260506080917 72 160 8.7 14.8 0.00 0.00 0.00 94 1009.9
20260506080152 72 154 9.6 16.5 0.00 0.00 0.00 94 1010.1
20260506073153 73 157 9.6 20.0 0.00 0.00 0.00 94 1010.0
20260506072653 73 181 8.7 21.7 0.00 0.00 0.00 94 1010.3
20260506072411 73 145 13.0 21.7 0.00 0.00 0.00 94 1010.1
20260506071912 73 176 12.2 23.5 0.00 0.00 0.00 93 1010.1
20260506071153 73 164 13.0 23.5 0.00 0.00 0.00 93 1010.2
20260506070652 73 139 10.4 21.7 0.00 0.00 0.00 94 1010.2
20260506070152 73 160 11.3 21.7 0.00 0.00 0.00 94 1010.2
20260506062153 73 197 9.6 20.9 0.00 0.00 0.00 94 1010.3
20260506061653 73 151 9.6 20.9 0.00 0.00 0.00 93 1010.0
20260506061153 73 162 10.4 20.0 0.00 0.00 0.00 93 1010.0
20260506060652 73 152 13.0 20.0 0.00 0.00 0.00 94 1010.3
20260506060154 73 157 11.3 20.0 0.00 0.00 0.00 94 1010.2
20260506051152 73 156 7.0 12.2 0.00 0.00 0.00 92 1010.3
20260506050653 73 155 7.0 13.0 0.00 0.00 0.00 92 1010.5
20260506050153 73 143 7.8 13.0 0.00 0.00 0.00 92 1010.4
20260506044652 73 175 9.6 14.8 0.00 0.00 0.00 91 1010.2
20260506044152 73 159 7.0 14.8 0.00 0.00 0.00 91 1010.3
20260506043925 73 162 8.7 13.0 0.00 0.00 0.00 91 1010.4
20260506043153 73 149 6.1 13.0 0.00 0.00 0.00 90 1010.1
20260506042652 73 134 7.8 14.8 0.00 0.00 0.00 90 1010.3
20260506042412 73 186 5.2 14.8 0.00 0.00 0.00 90 1010.3
20260506041913 73 159 8.7 13.0 0.00 0.00 0.00 90 1010.3
20260506041153 73 178 9.6 14.8 0.00 0.00 0.00 89 1010.2
20260506040653 73 168 7.0 14.8 0.00 0.00 0.00 89 1010.1
20260506040152 73 169 9.6 13.0 0.00 0.00 0.00 89 1010.2
20260506035152 74 184 7.8 13.0 0.00 0.00 0.00 88 1010.1
20260506034911 74 195 7.8 13.0 0.00 0.00 0.00 88 1010.1
20260506034153 74 182 7.8 13.0 0.00 0.00 0.00 88 1010.2
20260506033913 74 164 7.8 13.0 0.00 0.00 0.00 87 1010.0
20260506033153 74 155 7.8 11.3 0.00 0.00 0.00 87 1010.2
20260506032653 74 164 7.0 11.3 0.00 0.00 0.00 87 1010.0
20260506032153 74 175 8.7 11.3 0.00 0.00 0.00 87 1010.1
20260506031653 74 158 6.1 13.0 0.00 0.00 0.00 86 1009.9
20260506031152 74 150 6.1 13.0 0.00 0.00 0.00 86 1009.8
20260506030911 74 182 7.0 13.0 0.00 0.00 0.00 86 1009.7
20260506030408 74 173 7.8 12.2 0.00 0.00 0.00 86 1009.7
20260506025914 74 150 7.8 11.3 0.00 0.00 0.00 85 1009.8
20260506025153 74 153 6.1 9.6 0.00 0.00 0.00 85 1009.7
20260506024923 75 169 6.1 11.3 0.00 0.00 0.00 84 1009.7
20260506024153 75 161 7.0 11.3 0.00 0.00 0.00 84 1009.4
20260506023652 75 156 7.0 12.2 0.00 0.00 0.00 83 1009.5
20260506023412 75 176 7.0 12.2 0.00 0.00 0.00 83 1009.3
20260506022652 75 166 7.0 11.3 0.00 0.00 0.00 83 1009.5
20260506022153 75 194 6.1 13.0 0.00 0.00 0.00 83 1009.2
20260506021652 75 169 7.0 13.0 0.00 0.00 0.00 82 1009.2
20260506021152 76 163 7.8 13.0 0.00 0.00 0.00 82 1008.9
20260506020653 75 174 5.2 12.2 0.00 0.00 0.00 82 1008.8
20260506020153 75 151 6.1 9.6 0.00 0.00 0.00 82 1008.8
20260506015652 76 167 7.0 9.6 0.00 0.00 0.00 82 1008.8
20260506015152 76 162 6.1 8.7 0.00 0.00 0.00 82 1008.8
20260506014654 76 155 5.2 8.7 0.00 0.00 0.00 82 1008.6
20260506014153 76 149 6.1 9.6 0.00 0.00 0.00 81 1008.6
20260506013652 76 178 5.2 9.6 0.00 0.00 0.00 81 1008.5
20260506013152 76 169 6.1 9.6 0.00 0.00 0.00 81 1008.3
20260506012653 77 171 5.2 9.6 0.00 0.00 0.00 80 1008.2
20260506012152 77 156 5.2 9.6 0.00 0.00 0.00 79 1008.2
20260506011653 77 170 5.2 9.6 0.00 0.00 0.00 79 1008.0
20260506011153 78 156 4.3 8.7 0.00 0.00 0.00 78 1008.2
20260506010653 78 146 6.1 8.7 0.00 0.00 0.00 77 1008.0
20260506010153 78 185 4.3 11.3 0.00 0.00 0.00 76 1008.2
20260506005652 79 138 5.2 13.0 0.00 0.00 0.00 75 1008.0
20260506005153 79 171 4.3 13.0 0.00 0.00 0.00 75 1008.2
20260506004652 80 141 7.8 13.0 0.00 0.00 0.00 74 1008.3
20260506004152 80 151 7.8 13.0 0.00 0.00 0.00 73 1008.2
20260506003653 81 170 5.2 14.8 0.00 0.00 0.00 72 1008.2
20260506003153 82 171 9.6 16.5 0.00 0.00 0.00 71 1008.3
20260506002653 82 131 6.1 16.5 0.00 0.00 0.00 69 1008.4
20260506002414 83 151 7.8 16.5 0.00 0.00 0.00 68 1008.5
20260506001653 83 177 7.8 15.6 0.00 0.00 0.00 68 1008.4
20260506001152 83 137 7.8 15.6 0.00 0.00 0.00 69 1008.4
20260506000652 83 184 9.6 13.0 0.00 0.00 0.00 69 1008.5
20260506000152 83 161 6.1 14.8 0.00 0.00 0.00 68 1008.5
20260505235652 82 160 7.0 15.6 0.00 0.00 0.00 68 1008.4
20260505235152 83 163 9.6 15.6 0.00 0.00 0.00 69 1008.5
20260505234653 83 162 9.6 13.0 0.00 0.00 0.00 68 1008.5
20260505234152 83 165 8.7 13.0 0.00 0.00 0.00 68 1008.4
20260505233652 83 166 7.8 13.0 0.00 0.00 0.00 68 1008.3
20260505232652 83 179 7.0 13.9 0.00 0.00 0.00 68 1008.4
20260505232153 83 163 7.8 13.9 0.00 0.00 0.00 67 1008.3
20260505231653 83 196 9.6 14.8 0.00 0.00 0.00 67 1008.2
20260505231153 83 181 7.8 14.8 0.00 0.00 0.00 67 1008.2
20260505230653 84 172 9.6 13.0 0.00 0.00 0.00 67 1008.2
20260505230158 84 169 8.7 13.9 0.00 0.00 0.00 66 1008.3
20260505225653 84 198 8.7 16.5 0.00 0.00 0.00 66 1008.2
20260505225153 84 180 10.4 16.5 0.00 0.00 0.00 65 1008.3
20260505224653 84 190 7.8 18.2 0.00 0.00 0.00 65 1008.0
20260505224141 85 203 9.6 18.2 0.00 0.00 0.00 64 1008.4
20260505223640 85 185 8.7 16.5 0.00 0.00 0.00 65 1008.1
20260505223140 84 204 9.6 18.2 0.00 0.00 0.00 65 1008.1
20260505222140 84 174 10.4 15.6 0.00 0.00 0.00 65 1008.0
20260505221640 85 179 10.4 14.8 0.00 0.00 0.00 65 1008.2
20260505221358 85 141 7.8 16.5 0.00 0.00 0.00 65 1008.3
20260505220903 85 170 11.3 16.5 0.00 0.00 0.00 64 1008.2
20260505220140 85 159 11.3 14.8 0.00 0.00 0.00 63 1008.4
20260505215640 85 200 7.8 15.6 0.00 0.00 0.00 64 1008.2
20260505215140 85 202 9.6 16.5 0.00 0.00 0.00 65 1008.2
20260505214641 85 161 7.0 16.5 0.00 0.00 0.00 62 1008.6
20260505214141 86 184 11.3 15.6 0.00 0.00 0.00 63 1008.6
20260505213641 85 245 8.7 15.6 0.00 0.00 0.00 63 1008.7
20260505213142 86 201 8.7 15.6 0.00 0.00 0.00 62 1008.5
20260505212641 86 149 6.1 19.1 0.00 0.00 0.00 64 1008.6
20260505212400 86 181 10.4 19.1 0.00 0.00 0.00 61 1008.6
20260505211859 86 174 9.6 14.8 0.00 0.00 0.00 63 1008.7
20260505211141 87 169 9.6 15.6 0.00 0.00 0.00 62 1008.7
20260505210900 86 180 13.0 16.5 0.00 0.00 0.00 63 1008.6
20260505210140 86 173 9.6 16.5 0.00 0.00 0.00 63 1008.8
20260505205640 87 168 13.0 16.5 0.00 0.00 0.00 63 1008.9
20260505205141 86 200 7.8 19.1 0.00 0.00 0.00 62 1008.7
20260505204641 87 184 7.8 19.1 0.00 0.00 0.00 60 1008.9
20260505204141 87 170 9.6 19.1 0.00 0.00 0.00 62 1009.2
20260505203641 87 184 9.6 19.1 0.00 0.00 0.00 61 1009.2
20260505203141 87 186 10.4 15.6 0.00 0.00 0.00 63 1009.0
20260505202908 86 184 11.3 16.5 0.00 0.00 0.00 63 1009.3
20260505202140 86 177 11.3 18.2 0.00 0.00 0.00 63 1009.3
20260505201640 86 155 10.4 18.2 0.00 0.00 0.00 62 1009.3
20260505201141 86 179 8.7 18.2 0.00 0.00 0.00 63 1009.2
20260505200641 85 148 11.3 19.1 0.00 0.00 0.00 64 1009.2
20260505200140 85 165 8.7 19.1 0.00 0.00 0.00 65 1009.3
20260505195857 85 163 10.4 18.2 0.00 0.00 0.00 63 1009.3
20260505195141 85 185 9.6 18.2 0.00 0.00 0.00 64 1009.5
20260505194640 85 159 10.4 14.8 0.00 0.00 0.00 64 1009.6
20260505194140 85 172 7.8 18.2 0.00 0.00 0.00 65 1009.7
20260505193640 85 208 10.4 18.2 0.00 0.00 0.00 63 1009.5
20260505193140 85 152 7.8 14.8 0.00 0.00 0.00 65 1009.6
20260505192641 85 151 7.0 20.9 0.00 0.00 0.00 64 1009.7
20260505192141 85 189 8.7 20.9 0.00 0.00 0.00 63 1009.7
20260505191640 85 175 14.8 20.9 0.00 0.00 0.00 65 1009.6
20260505191141 85 200 7.0 16.5 0.00 0.00 0.00 65 1009.9
20260505190141 84 183 8.7 13.9 0.00 0.00 0.00 66 1010.1
20260505185641 83 154 7.8 14.8 0.00 0.00 0.00 68 1010.1
20260505185140 83 156 7.0 14.8 0.00 0.00 0.00 66 1010.0
20260505184640 84 200 9.6 15.6 0.00 0.00 0.00 67 1010.2
20260505184140 84 186 7.8 15.6 0.00 0.00 0.00 66 1010.3
20260505183640 83 240 8.7 14.8 0.00 0.00 0.00 69 1010.3
20260505183140 83 181 8.7 14.8 0.00 0.00 0.00 67 1010.3
20260505182641 83 190 7.8 18.2 0.00 0.00 0.00 67 1010.5
20260505182142 82 158 7.0 18.2 0.00 0.00 0.00 68 1010.5
20260505181641 82 151 7.8 16.5 0.00 0.00 0.00 68 1010.6
20260505181141 82 156 8.7 20.0 0.00 0.00 0.00 69 1010.4
20260505180641 81 195 6.1 20.0 0.00 0.00 0.00 70 1010.4
20260505180141 81 206 7.8 18.2 0.00 0.00 0.00 71 1010.6
20260505175641 80 191 7.8 15.6 0.00 0.00 0.00 70 1010.8
20260505175406 81 181 7.0 13.9 0.00 0.00 0.00 71 1010.7
20260505174640 80 187 5.2 13.9 0.00 0.00 0.00 71 1011.0
20260505174403 80 181 9.6 16.5 0.00 0.00 0.00 72 1011.0
20260505173907 79 174 7.0 16.5 0.00 0.00 0.00 72 1010.8
20260505173141 78 193 10.4 13.9 0.00 0.00 0.00 75 1010.8
20260505172641 78 166 7.8 16.5 0.00 0.00 0.00 73 1011.2
20260505172141 78 173 5.2 16.5 0.00 0.00 0.00 75 1011.1
20260505171903 78 184 6.1 15.6 0.00 0.00 0.00 75 1011.1
20260505171141 78 161 5.2 16.5 0.00 0.00 0.00 76 1011.2
20260505170641 78 157 12.2 20.9 0.00 0.00 0.00 78 1011.1
20260505170359 77 166 9.6 20.9 0.00 0.00 0.00 77 1011.3
20260505165641 77 207 7.0 19.1 0.00 0.00 0.00 77 1011.2
20260505165140 76 196 10.4 18.2 0.00 0.00 0.00 79 1011.2
20260505164640 76 209 7.0 16.5 0.00 0.00 0.00 78 1011.1
20260505164141 76 200 10.4 16.5 0.00 0.00 0.00 81 1010.8
20260505163641 74 184 5.2 15.6 0.00 0.00 0.00 82 1011.2
20260505163406 74 192 10.4 16.5 0.00 0.00 0.00 83 1011.1
20260505162641 74 184 8.7 16.5 0.00 0.00 0.00 82 1011.0
20260505162141 73 150 7.8 15.6 0.00 0.00 0.00 84 1010.8
20260505161641 73 205 10.4 16.5 0.00 0.00 0.00 85 1011.0
20260505161401 73 205 10.4 16.5 0.00 0.00 0.00 85 1011.1
20260505160641 73 192 8.7 15.6 0.00 0.00 0.00 85 1011.1
20260505160406 73 184 9.6 19.1 0.00 0.00 0.00 86 1011.0
20260505152641 70 198 12.2 18.2 0.00 0.00 0.00 90 1010.8
20260505152141 70 182 10.4 16.5 0.00 0.00 0.00 91 1010.7
20260505151641 69 175 9.6 14.8 0.00 0.00 0.00 91 1010.8
20260505151402 69 197 10.4 15.6 0.00 0.00 0.00 91 1011.0
20260505150640 69 161 5.2 19.1 0.00 0.00 0.00 91 1011.0
20260505150141 69 168 12.2 21.7 0.00 0.00 0.00 91 1010.6
20260505140640 68 200 11.3 25.2 0.00 0.00 0.00 94 1009.8
20260505140141 68 212 8.7 20.0 0.00 0.00 0.00 94 1009.7